Terminal Aerodrome Forecast
Issued by NWS Wilmington, OH

Current Version | Previous Version | Text Only | Print | Product List | Glossary Off
Versions: 1 2 3 4 5 6 7 8 9 10 11 12 13 14 15 16 17 18

000
FTUS41 KILN 210300 AAA
TAFDAY
TAF AMD
KDAY 210325Z 2103/2124 VRB03KT P6SM BKN025
      TEMPO 2103/2104 SCT025
     FM210400 VRB04KT P6SM SCT025
     FM211500 13005KT P6SM SCT250=

USA.gov is the U.S. government's official web portal to all federal, state and local government web resources and services.